TimeEDT,TemperatureF,Dew PointF,Humidity,Sea Level PressureIn,VisibilityMPH,Wind Direction,Wind SpeedMPH,Gust SpeedMPH,PrecipitationIn,Events,Conditions,WindDirDegrees,DateUTC
12:00 AM,48.9,39.0,69,30.21,-9999.0,Calm,Calm,-,N/A,,Clear,0,2013-05-27 04:00:00
1:00 AM,45.0,37.0,74,30.22,-9999.0,Calm,Calm,-,N/A,,Clear,0,2013-05-27 05:00:00
2:00 AM,44.1,36.0,73,30.22,-9999.0,Calm,Calm,-,N/A,,Clear,0,2013-05-27 06:00:00
3:00 AM,42.1,37.0,82,30.23,-9999.0,Calm,Calm,-,N/A,,Clear,0,2013-05-27 07:00:00
4:00 AM,41.0,36.0,82,30.23,-9999.0,Calm,Calm,-,N/A,,Clear,0,2013-05-27 08:00:00
5:00 AM,39.0,34.0,82,30.24,-9999.0,Calm,Calm,-,N/A,,Clear,0,2013-05-27 09:00:00
6:00 AM,39.9,34.0,79,30.24,-9999.0,Calm,Calm,-,N/A,,Clear,0,2013-05-27 10:00:00
7:00 AM,48.0,39.9,74,30.25,-9999.0,Calm,Calm,-,N/A,,Clear,0,2013-05-27 11:00:00
8:00 AM,68.0,41.0,37,30.25,-9999.0,WNW,3.5,-,N/A,,Clear,300,2013-05-27 12:00:00
9:00 AM,73.9,35.1,24,30.25,-9999.0,West,6.9,-,N/A,,Clear,280,2013-05-27 13:00:00
10:00 AM,78.1,30.0,17,30.25,-9999.0,Variable,3.5,-,N/A,,Clear,0,2013-05-27 14:00:00
11:00 AM,75.9,33.1,21,30.25,-9999.0,WNW,9.2,-,N/A,,Clear,300,2013-05-27 15:00:00
12:00 PM,79.0,35.1,20,30.23,-9999.0,WNW,8.1,16.1,N/A,,Clear,300,2013-05-27 16:00:00
1:00 PM,82.9,35.1,18,30.21,-9999.0,SW,10.4,-,N/A,,Clear,230,2013-05-27 17:00:00
2:00 PM,82.9,33.1,17,30.19,-9999.0,WSW,11.5,18.4,N/A,,Clear,250,2013-05-27 18:00:00
3:00 PM,84.9,33.1,16,30.17,-9999.0,WNW,10.4,18.4,N/A,,Clear,300,2013-05-27 19:00:00
4:00 PM,86.0,35.1,16,30.16,-9999.0,West,13.8,18.4,N/A,,Clear,280,2013-05-27 20:00:00
5:00 PM,84.0,37.0,19,30.14,-9999.0,WSW,8.1,17.3,N/A,,Clear,250,2013-05-27 21:00:00
6:00 PM,82.0,37.0,20,30.15,-9999.0,WSW,11.5,-,N/A,,Clear,250,2013-05-27 22:00:00
7:00 PM,79.0,37.9,23,30.15,-9999.0,WSW,6.9,-,N/A,,Clear,250,2013-05-27 23:00:00
8:00 PM,75.9,44.1,32,30.16,-9999.0,SW,4.6,-,N/A,,Clear,230,2013-05-28 00:00:00
9:00 PM,63.0,45.0,52,30.17,-9999.0,WSW,3.5,-,N/A,,Clear,240,2013-05-28 01:00:00
10:00 PM,64.0,44.1,48,30.18,-9999.0,SW,3.5,-,N/A,,Clear,220,2013-05-28 02:00:00
11:00 PM,60.1,44.1,55,30.19,-9999.0,SW,3.5,-,N/A,,Clear,230,2013-05-28 03:00:00